Location: Peebles
(55.6412°N, 3.1714°W)
Time: 14:17:45
(UTC+01:00)

USA 186 - Pass Details

Date: 26 September 2021
Orbit: 260 x 423 km, 96.9° (Epoch: 10 October)

Event Time Altitude Azimuth Distance (km) Brightness Sun altitude
Exits shadow 19:55:38 - 135° (SE) 1,572 4.2 -8.6°
Reaches altitude 10° 19:56:00 10° 132° (SE) 1,429 3.9 -8.6°
Maximum altitude 19:58:46 32° 67° (ENE) 725 2.5 -9.0°
Drops below altitude 10° 20:01:41 10° 3° (N) 1,502 4.7 -9.4°
Sets 20:03:51 0° 353° (N) 2,388 5.8 -9.7°
